Location: Huesca
(42.1318°N, 0.4078°W)
Time: 19:44:57
(UTC+02:00)

YUBILEINY - Pass Details

Date: 18 April 2026
Orbit: 1477 x 1509 km, 82.5° (Epoch: 17 May)

Event Time Altitude Azimuth Distance (km) Brightness Sun altitude
Rises 23:19:46 0° 3° (N) 4,609 ? -25.2°
Reaches altitude 10° 23:25:05 10° 30° (NNE) 3,628 ? -25.9°
Maximum altitude 23:28:44 13° 55° (NE) 3,393 ? -26.4°
Enters shadow 23:31:30 11° 75° (ENE) 3,531 ? -26.7°
